| time (UTC) | temp C | wind direction | speed KPH | gust KPH | rain 1hr cm | rain 24hr cm | rain mn cm | humidity % | barometer mb |
| 20260507174526 | 18 | 325 | 3.2 | 9.7 | 0.00 | 0.05 | 0.05 | 37 | 1010.2 |
| 20260507174007 | 18 | 269 | 3.2 | 6.4 | 0.00 | 0.05 | 0.05 | 40 | 1010.3 |
| 20260507173018 | 18 | 57 | 4.8 | 14.5 | 0.00 | 0.05 | 0.05 | 36 | 1010.5 |
| 20260507172009 | 18 | 200 | 0.0 | 12.9 | 0.00 | 0.05 | 0.05 | 37 | 1010.7 |
| 20260507171522 | 18 | 76 | 0.0 | 12.9 | 0.00 | 0.05 | 0.05 | 36 | 1010.8 |
| 20260507170022 | 17 | 17 | 3.2 | 16.1 | 0.00 | 0.05 | 0.05 | 38 | 1011.0 |
| 20260507165509 | 17 | 146 | 6.4 | 16.1 | 0.00 | 0.05 | 0.05 | 37 | 1011.0 |
| 20260507165010 | 17 | 53 | 3.2 | 9.7 | 0.00 | 0.05 | 0.05 | 39 | 1011.1 |
| 20260507164525 | 17 | 265 | 3.2 | 12.9 | 0.00 | 0.05 | 0.05 | 37 | 1011.2 |
| 20260507164014 | 17 | 329 | 4.8 | 12.9 | 0.00 | 0.05 | 0.05 | 37 | 1011.3 |
| 20260507163509 | 16 | 88 | 3.2 | 6.4 | 0.00 | 0.05 | 0.05 | 42 | 1011.3 |
| 20260507163024 | 17 | 321 | 1.6 | 4.8 | 0.00 | 0.05 | 0.05 | 40 | 1011.4 |
| 20260507162508 | 17 | 55 | 3.2 | 12.9 | 0.00 | 0.05 | 0.05 | 41 | 1011.7 |
| 20260507161528 | 15 | 111 | 0.0 | 9.7 | 0.00 | 0.05 | 0.05 | 42 | 1011.5 |
| 20260507160507 | 15 | 106 | 1.6 | 8.0 | 0.00 | 0.05 | 0.05 | 41 | 1011.9 |
| 20260507160005 | 16 | 190 | 1.6 | 11.3 | 0.00 | 0.05 | 0.05 | 43 | 1011.9 |
| 20260507155504 | 15 | 344 | 1.6 | 11.3 | 0.00 | 0.05 | 0.05 | 43 | 1012.0 |
| 20260507154508 | 15 | 352 | 3.2 | 11.3 | 0.00 | 0.05 | 0.05 | 44 | 1012.0 |
| 20260507153506 | 14 | 101 | 3.2 | 6.4 | 0.00 | 0.05 | 0.05 | 46 | 1012.2 |
| 20260507153011 | 14 | 30 | 1.6 | 8.0 | 0.00 | 0.05 | 0.05 | 46 | 1012.3 |
| 20260507152507 | 13 | 74 | 1.6 | 9.7 | 0.00 | 0.05 | 0.05 | 48 | 1012.4 |
| 20260507150510 | 13 | 108 | 1.6 | 12.9 | 0.00 | 0.08 | 0.05 | 49 | 1012.4 |
| 20260507150023 | 13 | 331 | 3.2 | 14.5 | 0.00 | 0.08 | 0.05 | 48 | 1012.6 |
| 20260507142008 | 12 | 344 | 4.8 | 12.9 | 0.00 | 0.08 | 0.05 | 52 | 1012.8 |
| 20260507141518 | 12 | 273 | 3.2 | 9.7 | 0.00 | 0.08 | 0.05 | 52 | 1012.9 |
| 20260507141012 | 12 | 19 | 3.2 | 8.0 | 0.00 | 0.13 | 0.05 | 52 | 1013.0 |
| 20260507140507 | 12 | 314 | 3.2 | 12.9 | 0.00 | 0.13 | 0.05 | 53 | 1013.0 |
| 20260507140020 | 12 | 271 | 3.2 | 12.9 | 0.00 | 0.15 | 0.05 | 52 | 1013.2 |
| 20260507135512 | 12 | 336 | 4.8 | 12.9 | 0.00 | 0.15 | 0.05 | 52 | 1013.3 |
| 20260507135008 | 12 | 352 | 4.8 | 11.3 | 0.00 | 0.15 | 0.05 | 53 | 1013.3 |
| 20260507134005 | 12 | 273 | 1.6 | 12.9 | 0.00 | 0.18 | 0.05 | 54 | 1013.3 |
| 20260507133505 | 12 | 326 | 1.6 | 12.9 | 0.00 | 0.20 | 0.05 | 53 | 1013.3 |
| 20260507132005 | 12 | 317 | 3.2 | 16.1 | 0.00 | 0.25 | 0.05 | 54 | 1013.2 |
| 20260507131523 | 12 | 30 | 6.4 | 16.1 | 0.00 | 0.28 | 0.05 | 53 | 1013.2 |
| 20260507130504 | 12 | 319 | 3.2 | 8.0 | 0.00 | 0.36 | 0.05 | 53 | 1013.3 |
| 20260507130016 | 12 | 317 | 1.6 | 8.0 | 0.00 | 0.38 | 0.05 | 56 | 1013.4 |
| 20260507125508 | 12 | 9 | 3.2 | 9.7 | 0.00 | 0.41 | 0.05 | 55 | 1013.3 |
| 20260507125011 | 12 | 302 | 3.2 | 12.9 | 0.00 | 0.43 | 0.05 | 55 | 1013.5 |
| 20260507124521 | 12 | 291 | 3.2 | 12.9 | 0.00 | 0.43 | 0.05 | 55 | 1013.5 |
| 20260507124008 | 12 | 53 | 1.6 | 12.9 | 0.00 | 0.46 | 0.05 | 57 | 1013.6 |
| 20260507123509 | 12 | 300 | 3.2 | 12.9 | 0.00 | 0.46 | 0.05 | 56 | 1013.4 |
| 20260507122504 | 12 | 89 | 0.0 | 12.9 | 0.00 | 0.46 | 0.05 | 59 | 1013.2 |
| 20260507121512 | 12 | 37 | 1.6 | 11.3 | 0.00 | 0.48 | 0.05 | 60 | 1013.1 |
| 20260507120507 | 12 | 286 | 1.6 | 6.4 | 0.00 | 0.51 | 0.05 | 62 | 1013.1 |
| 20260507115506 | 12 | 307 | 3.2 | 11.3 | 0.00 | 0.53 | 0.05 | 61 | 1013.1 |
| 20260507115007 | 12 | 290 | 3.2 | 8.0 | 0.00 | 0.56 | 0.05 | 61 | 1013.0 |
| 20260507114520 | 12 | 265 | 3.2 | 11.3 | 0.00 | 0.58 | 0.05 | 61 | 1012.8 |
| 20260507114008 | 12 | 311 | 3.2 | 11.3 | 0.00 | 0.58 | 0.05 | 61 | 1012.9 |
| 20260507113509 | 12 | 345 | 3.2 | 11.3 | 0.00 | 0.61 | 0.05 | 62 | 1012.8 |
| 20260507113023 | 12 | 279 | 3.2 | 11.3 | 0.00 | 0.64 | 0.05 | 63 | 1012.8 |
| 20260507112509 | 12 | 306 | 3.2 | 11.3 | 0.00 | 0.66 | 0.05 | 64 | 1012.7 |
| 20260507112011 | 12 | 5 | 3.2 | 8.0 | 0.00 | 0.66 | 0.05 | 68 | 1012.7 |
| 20260507111004 | 12 | 298 | 0.0 | 8.0 | 0.00 | 0.69 | 0.05 | 69 | 1012.8 |
| 20260507110016 | 12 | 293 | 0.0 | 4.8 | 0.00 | 0.69 | 0.05 | 68 | 1012.8 |
| 20260507105505 | 12 | 255 | 0.0 | 4.8 | 0.00 | 0.69 | 0.05 | 68 | 1012.7 |
| 20260507105006 | 12 | 360 | 1.6 | 8.0 | 0.00 | 0.69 | 0.05 | 67 | 1012.6 |
| 20260507104519 | 12 | 5 | 1.6 | 8.0 | 0.00 | 0.69 | 0.05 | 68 | 1012.6 |
| 20260507104011 | 12 | 36 | 1.6 | 6.4 | 0.00 | 0.69 | 0.05 | 68 | 1012.4 |
| 20260507103507 | 12 | 10 | 1.6 | 6.4 | 0.00 | 0.69 | 0.05 | 68 | 1012.4 |
| 20260507103023 | 12 | 330 | 3.2 | 6.4 | 0.00 | 0.69 | 0.05 | 68 | 1012.5 |
| 20260507102508 | 12 | 348 | 1.6 | 6.4 | 0.00 | 0.69 | 0.05 | 69 | 1012.5 |
| 20260507102011 | 12 | 327 | 1.6 | 6.4 | 0.00 | 0.69 | 0.05 | 70 | 1012.5 |
| 20260507101538 | 12 | 9 | 1.6 | 9.7 | 0.00 | 0.69 | 0.05 | 70 | 1012.4 |
| 20260507101012 | 12 | 26 | 0.0 | 9.7 | 0.00 | 0.69 | 0.05 | 70 | 1012.2 |
| 20260507100508 | 12 | 92 | 1.6 | 4.8 | 0.00 | 0.69 | 0.05 | 71 | 1012.1 |
| 20260507100016 | 12 | 347 | 0.0 | 6.4 | 0.00 | 0.69 | 0.05 | 72 | 1012.3 |
| 20260507095506 | 12 | 331 | 0.0 | 6.4 | 0.00 | 0.69 | 0.05 | 74 | 1012.1 |
| 20260507095006 | 12 | 352 | 0.0 | 6.4 | 0.00 | 0.69 | 0.05 | 75 | 1012.2 |
| 20260507094518 | 12 | 71 | 1.6 | 4.8 | 0.00 | 0.69 | 0.05 | 73 | 1012.1 |
| 20260507094010 | 12 | 302 | 0.0 | 6.4 | 0.00 | 0.69 | 0.05 | 74 | 1012.0 |
| 20260507093507 | 12 | 341 | 1.6 | 6.4 | 0.00 | 0.69 | 0.05 | 75 | 1012.0 |
| 20260507093019 | 12 | 42 | 0.0 | 4.8 | 0.00 | 0.69 | 0.05 | 76 | 1012.0 |
| 20260507092512 | 12 | 309 | 0.0 | 6.4 | 0.00 | 0.69 | 0.05 | 77 | 1011.9 |
| 20260507092009 | 12 | 9 | 1.6 | 6.4 | 0.00 | 0.69 | 0.05 | 78 | 1011.8 |
| 20260507091526 | 12 | 71 | 0.0 | 3.2 | 0.00 | 0.69 | 0.05 | 78 | 1011.7 |
| 20260507091010 | 12 | 41 | 0.0 | 3.2 | 0.00 | 0.69 | 0.05 | 78 | 1011.7 |
| 20260507090511 | 12 | 57 | 0.0 | 0.0 | 0.00 | 0.69 | 0.05 | 77 | 1011.9 |
| 20260507090031 | 12 | 30 | 0.0 | 3.2 | 0.00 | 0.69 | 0.05 | 76 | 1011.8 |
| 20260507085508 | 12 | 51 | 0.0 | 4.8 | 0.00 | 0.69 | 0.05 | 75 | 1011.8 |
| 20260507084516 | 12 | 9 | 1.6 | 4.8 | 0.00 | 0.69 | 0.05 | 76 | 1011.8 |
| 20260507084007 | 12 | 317 | 0.0 | 3.2 | 0.00 | 0.69 | 0.05 | 76 | 1011.9 |
| 20260507083510 | 12 | 331 | 1.6 | 6.4 | 0.00 | 0.69 | 0.05 | 75 | 1011.7 |
| 20260507082009 | 12 | 352 | 0.0 | 4.8 | 0.00 | 0.69 | 0.05 | 77 | 1011.7 |
| 20260507081523 | 12 | 287 | 0.0 | 6.4 | 0.00 | 0.69 | 0.05 | 77 | 1011.6 |
| 20260507081007 | 12 | 344 | 1.6 | 6.4 | 0.00 | 0.69 | 0.05 | 78 | 1011.4 |
| 20260507080511 | 12 | 309 | 1.6 | 4.8 | 0.00 | 0.69 | 0.05 | 78 | 1011.3 |
| 20260507080023 | 12 | 352 | 0.0 | 3.2 | 0.00 | 0.69 | 0.05 | 79 | 1011.2 |
| 20260507075511 | 12 | 305 | 0.0 | 3.2 | 0.00 | 0.69 | 0.05 | 79 | 1011.1 |
| 20260507075011 | 12 | 352 | 0.0 | 3.2 | 0.00 | 0.69 | 0.05 | 78 | 1011.1 |
| 20260507074525 | 12 | 327 | 0.0 | 3.2 | 0.00 | 0.69 | 0.05 | 80 | 1011.1 |
| 20260507074008 | 12 | 298 | 0.0 | 3.2 | 0.00 | 0.69 | 0.05 | 80 | 1011.2 |
| 20260507073510 | 12 | 294 | 0.0 | 3.2 | 0.00 | 0.69 | 0.05 | 81 | 1011.1 |
| 20260507073017 | 12 | 271 | 0.0 | 1.6 | 0.00 | 0.69 | 0.05 | 81 | 1011.1 |
| 20260507072508 | 12 | 284 | 0.0 | 3.2 | 0.00 | 0.69 | 0.05 | 81 | 1011.0 |
| 20260507072006 | 12 | 271 | 0.0 | 3.2 | 0.00 | 0.69 | 0.05 | 80 | 1011.0 |
| 20260507071520 | 12 | 331 | 1.6 | 3.2 | 0.00 | 0.69 | 0.05 | 81 | 1011.0 |
| 20260507071009 | 12 | 352 | 0.0 | 6.4 | 0.00 | 0.69 | 0.05 | 80 | 1011.1 |
| 20260507070503 | 12 | 333 | 1.6 | 6.4 | 0.00 | 0.69 | 0.05 | 81 | 1011.2 |
| 20260507065503 | 12 | 351 | 0.0 | 12.9 | 0.00 | 0.69 | 0.05 | 80 | 1011.1 |
| 20260507064510 | 12 | 335 | 3.2 | 12.9 | 0.00 | 0.69 | 0.05 | 77 | 1011.2 |
| 20260507063507 | 12 | 66 | 1.6 | 17.7 | 0.00 | 0.69 | 0.05 | 76 | 1011.4 |
| 20260507062008 | 13 | 311 | 4.8 | 11.3 | 0.00 | 0.69 | 0.05 | 74 | 1011.4 |
| 20260507061521 | 13 | 300 | 3.2 | 11.3 | 0.00 | 0.69 | 0.05 | 76 | 1011.8 |
| 20260507061009 | 13 | 29 | 3.2 | 11.3 | 0.00 | 0.69 | 0.05 | 76 | 1011.3 |
| 20260507060515 | 13 | 61 | 1.6 | 8.0 | 0.03 | 0.69 | 0.05 | 77 | 1011.3 |
| 20260507060015 | 13 | 255 | 1.6 | 6.4 | 0.03 | 0.69 | 0.05 | 78 | 1011.5 |
| 20260507055504 | 13 | 78 | 0.0 | 9.7 | 0.03 | 0.69 | 0.05 | 79 | 1011.3 |
| 20260507055003 | 13 | 360 | 1.6 | 9.7 | 0.03 | 0.69 | 0.05 | 78 | 1011.4 |
| 20260507054505 | 13 | 291 | 1.6 | 9.7 | 0.03 | 0.69 | 0.05 | 80 | 1011.3 |
| 20260507054003 | 13 | 278 | 1.6 | 9.7 | 0.03 | 0.69 | 0.05 | 80 | 1011.4 |
| 20260507053503 | 13 | 303 | 1.6 | 6.4 | 0.03 | 0.69 | 0.05 | 81 | 1011.2 |
| 20260507053012 | 13 | 9 | 1.6 | 12.9 | 0.05 | 0.69 | 0.05 | 81 | 1011.3 |
| 20260507052506 | 13 | 346 | 1.6 | 12.9 | 0.05 | 0.69 | 0.05 | 81 | 1011.4 |
| 20260507052007 | 13 | 360 | 4.8 | 14.5 | 0.05 | 0.69 | 0.05 | 81 | 1011.5 |
| 20260507051517 | 13 | 30 | 3.2 | 14.5 | 0.05 | 0.69 | 0.05 | 80 | 1011.4 |
| 20260507051007 | 13 | 336 | 4.8 | 16.1 | 0.05 | 0.69 | 0.05 | 81 | 1011.5 |
| 20260507050031 | 13 | 326 | 4.8 | 12.9 | 0.03 | 0.66 | 0.03 | 83 | 1011.2 |
| 20260507045509 | 13 | 344 | 1.6 | 4.8 | 0.03 | 0.66 | 0.03 | 84 | 1011.4 |
| 20260507045009 | 13 | 61 | 1.6 | 8.0 | 0.03 | 0.66 | 0.03 | 84 | 1011.3 |
| 20260507044003 | 13 | 66 | 0.0 | 8.0 | 0.03 | 0.66 | 0.03 | 84 | 1011.4 |
| 20260507043503 | 14 | 298 | 0.0 | 11.3 | 0.03 | 0.66 | 0.03 | 81 | 1011.4 |
| 20260507043010 | 15 | 38 | 1.6 | 11.3 | 0.00 | 0.64 | 0.00 | 79 | 1011.4 |
| 20260507042006 | 15 | 346 | 0.0 | 3.2 | 0.00 | 0.64 | 0.00 | 79 | 1011.0 |
| 20260507041527 | 15 | 261 | 0.0 | 8.0 | 0.00 | 0.64 | 0.00 | 78 | 1011.0 |
| 20260507041004 | 15 | 306 | 1.6 | 12.9 | 0.00 | 0.64 | 0.00 | 77 | 1011.3 |
| 20260507034523 | 15 | 304 | 3.2 | 11.3 | 0.00 | 0.64 | 0.64 | 74 | 1011.0 |
| 20260507034009 | 15 | 335 | 3.2 | 8.0 | 0.00 | 0.64 | 0.64 | 74 | 1010.7 |
| 20260507033510 | 15 | 55 | 1.6 | 6.4 | 0.00 | 0.64 | 0.64 | 74 | 1010.5 |
| 20260507032008 | 16 | 263 | 4.8 | 16.1 | 0.00 | 0.64 | 0.64 | 72 | 1011.0 |
| 20260507031523 | 16 | 278 | 3.2 | 16.1 | 0.00 | 0.64 | 0.64 | 72 | 1010.9 |
| 20260507031009 | 16 | 323 | 1.6 | 16.1 | 0.00 | 0.64 | 0.64 | 73 | 1010.8 |
| 20260507030510 | 16 | 294 | 3.2 | 12.9 | 0.00 | 0.64 | 0.64 | 73 | 1011.0 |
| 20260507030021 | 16 | 121 | 4.8 | 11.3 | 0.00 | 0.64 | 0.64 | 73 | 1011.0 |
| 20260507025007 | 16 | 315 | 3.2 | 14.5 | 0.00 | 0.64 | 0.64 | 73 | 1010.6 |
| 20260507023511 | 16 | 265 | 1.6 | 14.5 | 0.00 | 0.64 | 0.64 | 73 | 1010.2 |
| 20260507023022 | 16 | 297 | 4.8 | 16.1 | 0.00 | 0.64 | 0.64 | 73 | 1010.5 |
| 20260507022516 | 16 | 319 | 8.0 | 16.1 | 0.00 | 0.64 | 0.64 | 73 | 1010.3 |
| 20260507022005 | 17 | 65 | 6.4 | 16.1 | 0.00 | 0.64 | 0.64 | 74 | 1010.2 |
| 20260507021510 | 17 | 352 | 4.8 | 16.1 | 0.00 | 0.64 | 0.64 | 75 | 1010.4 |
| 20260507021004 | 17 | 352 | 6.4 | 16.1 | 0.00 | 0.64 | 0.64 | 74 | 1010.3 |
| 20260507015504 | 17 | 22 | 3.2 | 14.5 | 0.00 | 0.64 | 0.64 | 75 | 1009.9 |
| 20260507013025 | 18 | 54 | 4.8 | 19.3 | 0.00 | 0.64 | 0.64 | 77 | 1010.0 |
| 20260507012011 | 18 | 26 | 1.6 | 6.4 | 0.00 | 0.64 | 0.64 | 78 | 1010.0 |
| 20260507011528 | 18 | 55 | 0.0 | 17.7 | 0.00 | 0.64 | 0.64 | 78 | 1010.0 |
| 20260507011008 | 18 | 327 | 4.8 | 17.7 | 0.00 | 0.64 | 0.64 | 77 | 1010.1 |
| 20260507010507 | 18 | 67 | 4.8 | 16.1 | 0.00 | 0.64 | 0.64 | 77 | 1009.8 |
| 20260507010014 | 18 | 283 | 6.4 | 16.1 | 0.00 | 0.64 | 0.64 | 76 | 1009.9 |
| 20260507005505 | 18 | 281 | 1.6 | 11.3 | 0.00 | 0.64 | 0.64 | 76 | 1009.9 |
| 20260507005007 | 19 | 278 | 3.2 | 19.3 | 0.00 | 0.64 | 0.64 | 76 | 1009.9 |
| 20260507004532 | 19 | 288 | 11.3 | 19.3 | 0.00 | 0.64 | 0.64 | 76 | 1009.9 |
| 20260507002509 | 19 | 303 | 3.2 | 14.5 | 0.00 | 0.64 | 0.64 | 79 | 1009.6 |
| 20260507002003 | 19 | 270 | 3.2 | 9.7 | 0.00 | 0.64 | 0.64 | 80 | 1009.6 |
| 20260507001505 | 20 | 281 | 1.6 | 9.7 | 0.00 | 0.64 | 0.64 | 80 | 1009.6 |
| 20260507001003 | 20 | 337 | 4.8 | 9.7 | 0.00 | 0.64 | 0.64 | 80 | 1009.5 |
| 20260507000507 | 20 | 328 | 3.2 | 4.8 | 0.00 | 0.64 | 0.64 | 79 | 1009.4 |
| 20260507000013 | 20 | 296 | 1.6 | 4.8 | 0.00 | 0.64 | 0.64 | 78 | 1009.3 |
| 20260506235507 | 20 | 282 | 1.6 | 4.8 | 0.00 | 0.64 | 0.64 | 78 | 1009.1 |
| 20260506235005 | 20 | 279 | 1.6 | 4.8 | 0.00 | 0.64 | 0.64 | 78 | 1009.1 |
| 20260506234521 | 20 | 238 | 0.0 | 4.8 | 0.00 | 0.64 | 0.64 | 78 | 1009.1 |
| 20260506234008 | 20 | 301 | 0.0 | 4.8 | 0.00 | 0.64 | 0.64 | 77 | 1009.0 |
| 20260506233509 | 20 | 261 | 1.6 | 11.3 | 0.00 | 0.64 | 0.64 | 76 | 1009.0 |
| 20260506233021 | 20 | 281 | 0.0 | 11.3 | 0.00 | 0.64 | 0.64 | 75 | 1008.7 |
| 20260506232009 | 20 | 268 | 1.6 | 9.7 | 0.00 | 0.64 | 0.64 | 74 | 1008.6 |
| 20260506230504 | 20 | 257 | 6.4 | 16.1 | 0.00 | 0.64 | 0.64 | 74 | 1008.3 |
| 20260506230007 | 21 | 252 | 0.0 | 14.5 | 0.00 | 0.64 | 0.64 | 74 | 1008.4 |
| 20260506225503 | 21 | 281 | 4.8 | 14.5 | 0.00 | 0.64 | 0.64 | 74 | 1008.5 |
| 20260506224516 | 21 | 309 | 1.6 | 11.3 | 0.00 | 0.64 | 0.64 | 74 | 1008.5 |
| 20260506224007 | 21 | 227 | 3.2 | 9.7 | 0.00 | 0.64 | 0.64 | 74 | 1008.5 |
| 20260506223507 | 21 | 244 | 0.0 | 4.8 | 0.00 | 0.64 | 0.64 | 74 | 1008.5 |
| 20260506223025 | 21 | 237 | 1.6 | 9.7 | 0.00 | 0.64 | 0.64 | 74 | 1008.3 |
| 20260506222507 | 21 | 254 | 4.8 | 12.9 | 0.00 | 0.64 | 0.64 | 73 | 1008.2 |
| 20260506222009 | 21 | 250 | 3.2 | 14.5 | 0.00 | 0.64 | 0.64 | 73 | 1008.4 |
| 20260506221524 | 21 | 182 | 6.4 | 14.5 | 0.00 | 0.64 | 0.64 | 73 | 1008.5 |
| 20260506221014 | 21 | 287 | 3.2 | 11.3 | 0.00 | 0.64 | 0.64 | 73 | 1008.3 |
| 20260506220514 | 21 | 244 | 3.2 | 12.9 | 0.00 | 0.64 | 0.64 | 73 | 1008.2 |
| 20260506220027 | 21 | 216 | 4.8 | 12.9 | 0.00 | 0.64 | 0.64 | 72 | 1008.3 |
| 20260506215509 | 21 | 267 | 1.6 | 11.3 | 0.00 | 0.64 | 0.64 | 73 | 1008.2 |
| 20260506215010 | 21 | 206 | 1.6 | 12.9 | 0.00 | 0.64 | 0.64 | 74 | 1008.3 |
| 20260506214512 | 21 | 167 | 4.8 | 12.9 | 0.00 | 0.64 | 0.64 | 71 | 1008.2 |
| 20260506214008 | 21 | 300 | 6.4 | 12.9 | 0.00 | 0.64 | 0.64 | 72 | 1008.2 |
| 20260506213511 | 21 | 236 | 4.8 | 16.1 | 0.00 | 0.64 | 0.64 | 73 | 1008.2 |
| 20260506213015 | 21 | 275 | 4.8 | 16.1 | 0.00 | 0.64 | 0.64 | 73 | 1008.2 |
| 20260506212507 | 21 | 207 | 6.4 | 20.9 | 0.00 | 0.64 | 0.64 | 72 | 1008.2 |
| 20260506212008 | 21 | 146 | 8.0 | 20.9 | 0.00 | 0.64 | 0.64 | 71 | 1008.1 |
| 20260506211519 | 21 | 174 | 4.8 | 19.3 | 0.00 | 0.64 | 0.64 | 72 | 1008.0 |
| 20260506211006 | 21 | 294 | 6.4 | 17.7 | 0.00 | 0.64 | 0.64 | 72 | 1008.0 |
| 20260506210507 | 21 | 238 | 4.8 | 20.9 | 0.00 | 0.64 | 0.64 | 72 | 1007.9 |
| 20260506210030 | 21 | 168 | 6.4 | 20.9 | 0.00 | 0.64 | 0.64 | 72 | 1007.8 |
| 20260506205511 | 21 | 214 | 4.8 | 17.7 | 0.00 | 0.64 | 0.64 | 72 | 1007.9 |
| 20260506205011 | 21 | 227 | 3.2 | 24.1 | 0.00 | 0.64 | 0.64 | 71 | 1007.8 |
| 20260506204527 | 21 | 301 | 8.0 | 24.1 | 0.00 | 0.64 | 0.64 | 71 | 1007.8 |
| 20260506204005 | 21 | 232 | 11.3 | 24.1 | 0.00 | 0.64 | 0.64 | 71 | 1007.7 |
| 20260506203508 | 21 | 188 | 4.8 | 20.9 | 0.00 | 0.64 | 0.64 | 72 | 1007.7 |
| 20260506203024 | 21 | 217 | 8.0 | 20.9 | 0.00 | 0.64 | 0.64 | 72 | 1007.8 |
| 20260506202008 | 21 | 212 | 6.4 | 17.7 | 0.00 | 0.64 | 0.64 | 72 | 1007.9 |
| 20260506201530 | 21 | 150 | 8.0 | 19.3 | 0.00 | 0.64 | 0.64 | 72 | 1008.0 |
| 20260506201010 | 21 | 269 | 6.4 | 25.7 | 0.00 | 0.64 | 0.64 | 72 | 1007.9 |
| 20260506200507 | 21 | 218 | 9.7 | 25.7 | 0.00 | 0.64 | 0.64 | 71 | 1008.0 |
| 20260506200024 | 21 | 218 | 4.8 | 16.1 | 0.00 | 0.64 | 0.64 | 73 | 1008.0 |
| 20260506195507 | 21 | 220 | 6.4 | 17.7 | 0.00 | 0.64 | 0.64 | 73 | 1008.1 |
| 20260506195011 | 21 | 229 | 8.0 | 17.7 | 0.00 | 0.64 | 0.64 | 73 | 1008.1 |
| 20260506194529 | 20 | 240 | 8.0 | 16.1 | 0.00 | 0.64 | 0.64 | 73 | 1008.0 |
| 20260506194009 | 20 | 173 | 4.8 | 20.9 | 0.00 | 0.64 | 0.64 | 74 | 1008.0 |
| 20260506193508 | 20 | 269 | 8.0 | 25.7 | 0.00 | 0.64 | 0.64 | 73 | 1008.1 |
| 20260506193024 | 20 | 273 | 8.0 | 25.7 | 0.00 | 0.64 | 0.64 | 74 | 1008.2 |
| 20260506192504 | 20 | 237 | 12.9 | 22.5 | 0.00 | 0.64 | 0.64 | 73 | 1008.1 |
| 20260506190511 | 20 | 193 | 4.8 | 30.6 | 0.00 | 0.64 | 0.64 | 73 | 1008.3 |
| 20260506190022 | 20 | 193 | 8.0 | 30.6 | 0.00 | 0.64 | 0.64 | 73 | 1008.3 |
| 20260506185506 | 20 | 254 | 12.9 | 24.1 | 0.00 | 0.64 | 0.64 | 72 | 1008.5 |
| 20260506185014 | 20 | 190 | 6.4 | 22.5 | 0.00 | 0.64 | 0.64 | 73 | 1008.3 |
| 20260506184525 | 20 | 200 | 6.4 | 19.3 | 0.00 | 0.64 | 0.64 | 74 | 1008.3 |
| 20260506184011 | 20 | 188 | 8.0 | 24.1 | 0.00 | 0.64 | 0.64 | 74 | 1008.5 |
| 20260506183511 | 20 | 197 | 11.3 | 27.4 | 0.00 | 0.64 | 0.64 | 75 | 1008.5 |
| 20260506183030 | 19 | 184 | 14.5 | 32.2 | 0.00 | 0.64 | 0.64 | 75 | 1008.4 |
| 20260506182508 | 19 | 149 | 11.3 | 32.2 | 0.00 | 0.64 | 0.64 | 75 | 1008.6 |
| 20260506182011 | 19 | 203 | 8.0 | 27.4 | 0.00 | 0.64 | 0.64 | 76 | 1008.6 |
| 20260506181514 | 19 | 281 | 8.0 | 24.1 | 0.00 | 0.64 | 0.64 | 76 | 1008.7 |
| 20260506181005 | 19 | 234 | 9.7 | 20.9 | 0.00 | 0.64 | 0.64 | 76 | 1008.6 |
| 20260506180511 | 19 | 206 | 9.7 | 20.9 | 0.00 | 0.64 | 0.64 | 76 | 1008.5 |
| 20260506180022 | 19 | 204 | 6.4 | 29.0 | 0.00 | 0.64 | 0.64 | 77 | 1008.7 |
| 20260506175510 | 19 | 167 | 14.5 | 25.7 | 0.00 | 0.64 | 0.64 | 76 | 1008.7 |